TimeEST,TemperatureF,Dew PointF,Humidity,Sea Level PressureIn,VisibilityMPH,Wind Direction,Wind SpeedMPH,Gust SpeedMPH,PrecipitationIn,Events,Conditions,WindDirDegrees,DateUTC
12:27 AM,30.2,30.2,100,30.24,0.2,Calm,Calm,-,0.00,Fog,Light Freezing Fog,0,2013-02-26 05:27:00
12:34 AM,30.2,28.4,93,30.25,0.2,Calm,Calm,-,0.00,Fog,Light Freezing Fog,0,2013-02-26 05:34:00
12:54 AM,30.9,28.9,92,30.27,0.2,Calm,Calm,-,0.00,Fog,Light Freezing Fog,0,2013-02-26 05:54:00
1:15 AM,30.2,28.4,93,30.26,0.5,Calm,Calm,-,N/A,Fog,Light Freezing Fog,0,2013-02-26 06:15:00
1:21 AM,30.2,30.2,100,30.25,1.0,Calm,Calm,-,N/A,,Mist,0,2013-02-26 06:21:00
1:29 AM,30.2,28.4,93,30.25,0.2,Calm,Calm,-,N/A,Fog,Light Freezing Fog,0,2013-02-26 06:29:00
1:42 AM,30.2,30.2,100,30.25,0.2,Calm,Calm,-,N/A,Fog,Light Freezing Fog,0,2013-02-26 06:42:00
1:54 AM,30.9,30.0,96,30.27,0.2,Calm,Calm,-,N/A,Fog,Light Freezing Fog,0,2013-02-26 06:54:00
2:12 AM,30.2,30.2,100,30.25,0.2,Calm,Calm,-,N/A,Fog,Light Freezing Fog,0,2013-02-26 07:12:00
2:23 AM,30.2,28.4,93,30.26,0.2,Calm,Calm,-,N/A,Fog,Light Freezing Fog,0,2013-02-26 07:23:00
2:45 AM,30.2,28.4,93,30.26,0.2,Calm,Calm,-,N/A,Fog,Light Freezing Fog,0,2013-02-26 07:45:00
2:54 AM,30.9,28.9,92,30.28,0.2,Calm,Calm,-,N/A,Fog,Light Freezing Fog,0,2013-02-26 07:54:00
3:04 AM,30.2,30.2,100,30.27,0.8,Calm,Calm,-,N/A,,Overcast,0,2013-02-26 08:04:00
3:10 AM,30.2,30.2,100,30.27,1.5,Calm,Calm,-,N/A,,Overcast,0,2013-02-26 08:10:00
3:21 AM,30.2,30.2,100,30.27,2.5,Calm,Calm,-,N/A,,Overcast,0,2013-02-26 08:21:00
3:34 AM,30.2,28.4,93,30.27,2.5,Calm,Calm,-,N/A,,Overcast,0,2013-02-26 08:34:00
3:46 AM,30.2,28.4,93,30.27,1.2,Calm,Calm,-,N/A,,Overcast,0,2013-02-26 08:46:00
3:54 AM,30.9,28.9,92,30.28,1.2,Calm,Calm,-,N/A,,Overcast,0,2013-02-26 08:54:00
4:04 AM,30.2,28.4,93,30.27,0.8,Calm,Calm,-,N/A,,Overcast,0,2013-02-26 09:04:00
4:37 AM,30.2,28.4,93,30.28,1.0,Calm,Calm,-,N/A,,Overcast,0,2013-02-26 09:37:00
4:45 AM,30.2,28.4,93,30.29,0.8,Calm,Calm,-,N/A,,Overcast,0,2013-02-26 09:45:00
4:54 AM,30.9,28.9,92,30.30,1.0,Calm,Calm,-,N/A,,Overcast,0,2013-02-26 09:54:00
5:27 AM,30.2,28.4,93,30.29,2.0,Calm,Calm,-,N/A,,Overcast,0,2013-02-26 10:27:00
5:54 AM,30.9,28.9,92,30.30,2.5,Calm,Calm,-,N/A,,Overcast,0,2013-02-26 10:54:00
6:11 AM,30.2,28.4,93,30.29,3.0,ENE,3.5,-,N/A,,Overcast,70,2013-02-26 11:11:00
6:54 AM,30.9,28.9,92,30.31,4.0,Calm,Calm,-,N/A,,Mostly Cloudy,0,2013-02-26 11:54:00
7:54 AM,32.0,28.9,88,30.32,4.0,Calm,Calm,-,N/A,,Mostly Cloudy,0,2013-02-26 12:54:00
8:54 AM,32.0,30.0,92,30.33,5.0,Calm,Calm,-,N/A,,Mostly Cloudy,0,2013-02-26 13:54:00
9:54 AM,36.0,30.9,82,30.32,9.0,Calm,Calm,-,N/A,,Scattered Clouds,0,2013-02-26 14:54:00
10:54 AM,37.9,30.0,73,30.30,10.0,Calm,Calm,-,N/A,,Partly Cloudy,0,2013-02-26 15:54:00
11:54 AM,39.0,32.0,76,30.30,7.0,West,4.6,-,N/A,,Partly Cloudy,280,2013-02-26 16:54:00
12:54 PM,41.0,30.0,65,30.29,10.0,Variable,5.8,-,N/A,,Scattered Clouds,0,2013-02-26 17:54:00
1:54 PM,41.0,28.9,62,30.28,10.0,Variable,4.6,-,N/A,,Scattered Clouds,0,2013-02-26 18:54:00
2:54 PM,41.0,28.9,62,30.24,10.0,Calm,Calm,-,N/A,,Mostly Cloudy,0,2013-02-26 19:54:00
3:54 PM,41.0,28.9,62,30.23,10.0,ENE,3.5,-,N/A,,Mostly Cloudy,70,2013-02-26 20:54:00
4:54 PM,39.9,27.0,60,30.22,10.0,SE,4.6,-,N/A,,Mostly Cloudy,130,2013-02-26 21:54:00
5:54 PM,39.9,26.1,58,30.22,10.0,SSE,11.5,-,N/A,,Mostly Cloudy,150,2013-02-26 22:54:00
6:54 PM,37.9,28.0,68,30.20,10.0,SE,9.2,-,N/A,,Overcast,130,2013-02-26 23:54:00
7:54 PM,39.0,27.0,62,30.21,10.0,SE,10.4,-,N/A,,Overcast,140,2013-02-27 00:54:00
8:54 PM,37.9,27.0,65,30.20,10.0,SE,9.2,-,N/A,,Overcast,140,2013-02-27 01:54:00
9:54 PM,37.0,28.0,70,30.17,10.0,ESE,6.9,-,N/A,,Overcast,120,2013-02-27 02:54:00
10:54 PM,36.0,28.0,73,30.14,10.0,SE,6.9,-,N/A,,Partly Cloudy,130,2013-02-27 03:54:00
11:54 PM,36.0,25.0,64,30.10,10.0,ESE,13.8,19.6,N/A,,Clear,120,2013-02-27 04:54:00